Regional Weather Roundup
Issued by NWS

Home | Current Version | Previous Version | Text Only | Print | Product List | Glossary Off
Versions: 1 2 3 4 5 6 7 8 9 10 11 12 13 14 15 16 17 18 19 20 21 22 23 24 25 26 27 28 29 30 31 32 33 34 35 36 37 38 39 40 41 42 43 44 45 46 47 48 49 50

000
ASUS45 KPSR 130710
RWRAZ

ARIZONA HOURLY REGIONAL WEATHER ROUNDUP
NATIONAL WEATHER SERVICE PHOENIX AZ
1200 AM MST SAT FEB 13 2016

NOTE: FAIR INDICATES FEW OR NO CLOUDS BELOW 12,000 FEET WITH NO
SIGNIFICANT WEATHER AND/OR OBSTRUCTIONS TO VISIBILITY.

AZZ001>003-036-130800-
NORTHWEST ARIZONA

CITY           SKY/WX    TMP DP  RH WIND       PRES   REMARKS
BULLHEAD CITY  CLEAR     61  32  33 N6        30.11S
KINGMAN        CLEAR     40  23  50 CALM      30.20S
$$

AZZ004>008-015-016-018-130800-
NORTH CENTRAL ARIZONA

CITY           SKY/WX    TMP DP  RH WIND       PRES   REMARKS
GRAND CANYON   PTCLDY    28  21  75 CALM      30.34F
WILLIAMS       PTCLDY    34  19  55 S12       30.39F WCI  25
PRESCOTT       PTCLDY    45  24  43 S10       30.27F
FLAGSTAFF      PTCLDY    27  19  72 CALM      30.36S
PAYSON         CLEAR     46  19  34 CALM      30.28S
PAGE           PTCLDY    42  30  62 CALM      30.29S
$$

AZZ009>014-017-130800-
NORTHEAST ARIZONA

CITY           SKY/WX    TMP DP  RH WIND       PRES   REMARKS
WINSLOW        MOCLDY    34  19  54 S3        30.30S
SAINT JOHNS    CLEAR     31  14  49 S3        30.31R
WINDOW ROCK    CLEAR     27   0  31 CALM      30.37F
SHOW LOW       PTCLDY    36  18  48 CALM      30.34S
$$

AZZ023-130800-
GREATER PHOENIX AREA

CITY           SKY/WX    TMP DP  RH WIND       PRES   REMARKS
PHOENIX        CLEAR     64  35  34 E6        30.05F
BUCKEYE        CLEAR     57  32  38 NE3       30.08S
LUKE AFB       CLEAR     55  36  50 N5        30.06R
DEER VALLEY    CLEAR     58  32  37 CALM      30.07S
SCOTTSDALE     CLEAR     57  35  43 CALM      30.09R
MESA-GATEWAY   CLEAR     54  34  47 E7        30.09R
$$

AZZ027-028-130800-
SOUTHWEST MARICOPA COUNTY AND PINAL COUNTY

CITY           SKY/WX    TMP DP  RH WIND       PRES   REMARKS
CASA GRANDE    CLEAR     54  27  35 CALM      30.09S
GILA BEND      FAIR      58  26  28 S7        30.06R
$$

AZZ503-504-507>509-130800-
SOUTHEAST ARIZONA

CITY           SKY/WX    TMP DP  RH WIND       PRES   REMARKS
TUCSON         PTCLDY    56  23  27 SE6       30.15F
DAVIS-MONTHAN  CLEAR     54  21  27 E8        30.13F
NOGALES        MOCLDY    51  17  26 CALM      30.19S
SIERRA VISTA   PTCLDY    51  15  23 SW6       30.24F
DOUGLAS        PTCLDY    46   9  22 N7        30.22S
SAFFORD        CLEAR     53  19  26 E13       30.17F
$$

AZZ020-021-025-026-031-130800-
SOUTHWEST ARIZONA

CITY           SKY/WX    TMP DP  RH WIND       PRES   REMARKS
YUMA           NOT AVBL
$$

CAZ031-033-041-043-047-048-061-130800-
SOUTHERN CALIFORNIA

CITY           SKY/WX    TMP DP  RH WIND       PRES   REMARKS
DOWNTOWN L.A.  CLEAR     59  54  83 CALM      30.08R
L.A. AIRPORT   CLEAR     60  55  83 SW3       30.09R
SAN DIEGO      FOG       59  57  94 VRB3      30.12R VSB 1/4
BURBANK        CLEAR     63  41  44 E3        30.09R
ONTARIO        PTCLDY    62  41  46 N5        30.10R
RIVERSIDE      CLEAR     60  41  49 E3        30.10S
PALM SPRINGS   CLEAR     63  27  25 N9        30.09S
EL CENTRO NAS  CLEAR     54  24  31 W8        30.06S
IMPERIAL       CLEAR     56  26  31 W5        30.04S
BLYTHE         CLEAR     58  23  26 CALM      30.06S
NEEDLES        CLEAR     61  25  25 CALM      30.09F
$$

NVZ020-UTZ003-130800-
SOUTHERN NEVADA-UTAH

CITY           SKY/WX    TMP DP  RH WIND       PRES   REMARKS
LAS VEGAS      PTCLDY    54  24  31 S5        30.12F
SALT LAKE CITY CLOUDY    29  28  96 SW5       30.32S FOG     WCI  24
$$

NMZ009-TXZ055-130800-
NEW MEXICO-WEST TEXAS

CITY           SKY/WX    TMP DP  RH WIND       PRES   REMARKS
ALBUQUERQUE    CLOUDY    46  20  35 NE7       30.32F
EL PASO        PTCLDY    47  14  26 N3        30.26S
$$


........................KEY........................
SKY/WX - SKY CONDITION/WEATHER
TMP    - TEMPERATURE IN FAHRENHEIT
DP     - DEW POINT IN FAHRENHEIT
RH     - RELATIVE HUMIDITY IN PERCENT
WIND   - DIRECTION AND SPEED IN MILES PER HOUR (MPH)
VRB    - VARIABLE WIND DIRECTION
PRES   - MEAN SEA LEVEL PRESSURE IN INCHES OF MERCURY
         F - FALLING PRESSURE   R - RISING PRESSURE
         S - STEADY PRESSURE
VSB    - VISIBILITY IN MILES
HX     - HEAT INDEX IN FAHRENHEIT
WCI    - WIND CHILL INDEX IN FAHRENHEIT
TC     - TEMPERATURE IN CELSIUS WHICH IS ALSO KNOWN AS
         TEMPERATURE IN CENTIGRADE
AFB    - AIR FORCE BASE
         LUKE AFB IS LUKE AIR FORCE BASE
         DAVIS-MONTHAN IS DAVIS-MONTHAN AIR FORCE BASE
NAS    - NAVAL AIR STATION
         EL CENTRO NAS IS EL CENTRO NAVAL AIR STATION
N/A    - NOT AVAILABLE




USA.gov is the U.S. government's official web portal to all federal, state and local government web resources and services.